Regional Weather Roundup
Issued by NWS Burlington, VT

Home | Current Version | Previous Version | Text Only | Print | Product List | Glossary On
Versions: 1 2 3 4 5 6 7 8 9 10 11 12 13 14 15 16 17 18 19 20 21 22 23 24 25 26 27 28 29 30 31 32 33 34 35 36 37 38 39 40 41 42 43 44 45 46 47 48 49 50
000
ASUS41 KBTV 302030
RWRBTV
VERMONT REGIONAL WEATHER ROUNDUP
NATIONAL WEATHER SERVICE BURLINGTON VT
400 PM EDT SAT APR 30 2016

NOTE: "FAIR" INDICATES FEW OR NO CLOUDS BELOW 12,000 FEET WITH NO
SIGNIFICANT WEATHER AND/OR OBSTRUCTIONS TO VISIBILITY.

* THESE REPORTS ARE NOT UNDER NWS QUALITY CONTROL AND/OR DO NOT
  REPORT WEATHER SUCH AS PRECIPITATION AND FOG.

VTZ001>019-302100-
_____VERMONT_____


CITY           SKY/WX    TMP DP  RH WIND       PRES   REMARKS
BURLINGTON     FAIR      60  21  22 NW10      30.19F
MONTPELIER     FAIR      60  17  18 CALM      30.19F
MORRISVILLE    FAIR      59  17  19 N9        30.19S
ST. JOHNSBURY*   N/A     64  19  17 MISG      30.13F
LYNDONVILLE*   FAIR      59  20  22 NW8       30.18S
MIDDLEBURY*    FAIR      61  21  21 NW9G16    30.17S
RUTLAND*       FAIR      61  27  27 N9        30.16S
SPRINGFIELD    FAIR      67  28  23 NW9       30.12F
HIGHGATE*      FAIR      57  20  23 NW7       30.21S
NEWPORT*       FAIR      54  21  27 N9        30.19S
BENNINGTON     FAIR      64  33  31 VRB5      30.15S
GALLUP MILLS*    N/A     59 N/A N/A MISG        N/A
UNION VILLAGE*   N/A     66 N/A N/A MISG        N/A
MT. MANSFIELD*   N/A     46 N/A N/A NW12        N/A

_____LAKE CHAMPLAIN_____


CITY           SKY/WX    TMP DP  RH WIND       PRES   REMARKS
COLCHESTER RF*   N/A     52  28  40 NE14        N/A
DIAMOND ISL*     N/A     54  21  28 N14         N/A

$$

NYZ007-026>031-035-052-083-087-302100-
_____NORTHERN NEW YORK_____


CITY           SKY/WX    TMP DP  RH WIND       PRES   REMARKS
PLATTSBURGH    SUNNY     56  20  24 NE13      30.21F
SARANAC LAKE   SUNNY     60  12  15 VRB5      30.12F
MASSENA        SUNNY     60  20  21 VRB3      30.21F
OGDENSBURG*    SUNNY     63  25  23 NE10      30.19F
STARK FALLS*     N/A     64 N/A N/A N2          N/A
WATERTOWN      SUNNY     64  25  22 N13       30.15F
FT DRUM        SUNNY     62  22  21 NE12      30.14F
ALBANY         PTSUNNY   65  35  33 VRB5      30.15F
GLENS FALLS    SUNNY     65  30  27 NE5       30.15F

$$
NHZ002-005-011-302100-
_____NEW HAMPSHIRE_____


CITY           SKY/WX    TMP DP  RH WIND       PRES   REMARKS
LEBANON        SUNNY     68  28  22 E8        30.12S
KEENE          MOSUNNY   64  34  32 SW8       30.14S
MT WASHINGTON  MOSUNNY   36  14  41 SW20        N/A  WCI  25
PLYMOUTH       FAIR      66  22  18 CALM      30.12F
WHITEFIELD     SUNNY     62  12  14 VRB5      30.13F

$$

_____REGIONAL QUEBEC LOCATIONS_____


CITY           SKY/WX    TMP DP  RH WIND       PRES   REMARKS
MONTREAL       MOSUNNY   57  18  21 E3        30.21S
QUEBEC CITY    SUNNY     55  10  16 VRB5      30.20F
SHERBROOKE     SUNNY     57  21  24 SW5G17    30.16F

_____REGIONAL ONTARIO LOCATIONS_____


CITY           SKY/WX    TMP DP  RH WIND       PRES   REMARKS
OTTAWA         MOSUNNY   59  19  21 E6        30.20F

______KEY______
VSB  - VISIBILITY IN MILES
WCI  - WIND CHILL INDEX
HX   - HEAT INDEX
$$
NNNN



USA.gov is the U.S. government's official web portal to all federal, state and local government web resources and services.